When you browse on this site, cookies collect data to enhance your experience and personalize the content and advertising you see.
Visit our Privacy Policy to learn more. By continuing to use the site, you agree to this use of cookies and data.
  • In France
  • List of Countries
  • For 7 days
  • Water Temperature
  • Weather Map
  • Weather Widgets
  • user-avatar
    Login

    Hourly Weather Sarajevo

    Today, 26 August, Monday

    Time Temperature Precipitation Wind Pressure Humidity
    00:00 +15°C° 0 mm 1 mps 690 mmHg 87%
    01:00 +15°C° 0 mm 1 mps 690 mmHg 86%
    02:00 +15°C° 0 mm 1 mps 690 mmHg 85%
    03:00 +15°C° 0 mm 1 mps 690 mmHg 85%
    04:00 +15°C° 0 mm 1 mps 690 mmHg 84%
    05:00 +18°C° 0 mm 1 mps 690 mmHg 82%
    06:00 +19°C° 0 mm 1 mps 691 mmHg 80%
    07:00 +20°C° 0 mm 1 mps 691 mmHg 78%
    08:00 +23°C° 0 mm 1 mps 691 mmHg 67%
    09:00 +26°C° 0 mm 1 mps 692 mmHg 57%
    10:00 +29°C° 0 mm 1 mps 693 mmHg 47%
    11:00 +29°C° 0 mm 1 mps 693 mmHg 44%
    12:00 +30°C° 0 mm 1 mps 693 mmHg 41%
    13:00 +30°C° 0 mm 1 mps 693 mmHg 38%
    14:00 +27°C° 1.3 mm 2 mps 692 mmHg 52%
    15:00 +24°C° 1.3 mm 2 mps 691 mmHg 65%
    16:00 +20°C° 1.3 mm 3 mps 690 mmHg 78%
    17:00 +19°C° 0.5 mm 2 mps 690 mmHg 82%
    18:00 +18°C° 0.5 mm 2 mps 690 mmHg 86%
    19:00 +16°C° 0.5 mm 2 mps 690 mmHg 90%
    20:00 +16°C° 0 mm 2 mps 690 mmHg 89%
    21:00 +16°C° 0 mm 2 mps 690 mmHg 88%
    22:00 +16°C° 0 mm 2 mps 690 mmHg 87%
    23:00 +16°C° 0 mm 1 mps 690 mmHg 84%

    Tomorrow, 27 August, Tuesday

    Time Temperature Precipitation Wind Pressure Humidity
    00:00 +16°C° 0 mm 1 mps 690 mmHg 82%
    01:00 +16°C° 0 mm 1 mps 690 mmHg 80%
    02:00 +16°C° 0 mm 1 mps 690 mmHg 79%
    03:00 +16°C° 0 mm 1 mps 690 mmHg 77%
    04:00 +16°C° 0 mm 1 mps 690 mmHg 75%
    05:00 +19°C° 0 mm 1 mps 690 mmHg 73%
    06:00 +20°C° 0 mm 1 mps 691 mmHg 71%
    07:00 +22°C° 0 mm 1 mps 691 mmHg 69%
    08:00 +23°C° 0 mm 0 mps 692 mmHg 59%
    09:00 +25°C° 0 mm 0 mps 692 mmHg 50%
    10:00 +28°C° 0 mm 0 mps 693 mmHg 40%
    11:00 +30°C° 0 mm 1 mps 693 mmHg 38%
    12:00 +31°C° 0 mm 1 mps 693 mmHg 35%
    13:00 +31°C° 0 mm 1 mps 693 mmHg 32%
    14:00 +30°C° 0 mm 1 mps 692 mmHg 37%
    15:00 +29°C° 0 mm 1 mps 692 mmHg 41%
    16:00 +28°C° 0 mm 1 mps 692 mmHg 46%
    17:00 +26°C° 0 mm 1 mps 691 mmHg 52%
    18:00 +24°C° 0 mm 1 mps 691 mmHg 58%
    19:00 +22°C° 0 mm 1 mps 691 mmHg 64%
    20:00 +21°C° 0 mm 1 mps 691 mmHg 66%
    21:00 +20°C° 0 mm 1 mps 691 mmHg 68%
    22:00 +20°C° 0 mm 1 mps 691 mmHg 70%
    23:00 +19°C° 0 mm 1 mps 691 mmHg 70%

    Day after tomorrow, 28 August, Wednesday

    Time Temperature Precipitation Wind Pressure Humidity
    00:00 +19°C° 0 mm 1 mps 691 mmHg 69%
    01:00 +19°C° 0 mm 1 mps 691 mmHg 69%
    02:00 +19°C° 0 mm 1 mps 691 mmHg 69%
    03:00 +18°C° 0 mm 1 mps 690 mmHg 68%
    04:00 +18°C° 0 mm 1 mps 690 mmHg 68%
    05:00 +19°C° 0 mm 1 mps 691 mmHg 66%
    06:00 +21°C° 0 mm 1 mps 691 mmHg 64%
    07:00 +22°C° 0 mm 1 mps 691 mmHg 62%
    08:00 +25°C° 0 mm 1 mps 692 mmHg 55%
    09:00 +25°C° 0 mm 0 mps 692 mmHg 48%
    10:00 +28°C° 0 mm 0 mps 692 mmHg 41%
    11:00 +28°C° 0 mm 0 mps 692 mmHg 39%
    12:00 +31°C° 0 mm 1 mps 692 mmHg 36%
    13:00 +31°C° 0 mm 1 mps 692 mmHg 34%
    14:00 +30°C° 0.1 mm 1 mps 692 mmHg 40%
    15:00 +28°C° 0.1 mm 1 mps 691 mmHg 46%
    16:00 +27°C° 0.1 mm 2 mps 690 mmHg 53%
    17:00 +25°C° 0.2 mm 1 mps 690 mmHg 58%
    18:00 +23°C° 0.2 mm 1 mps 690 mmHg 63%
    19:00 +21°C° 0.2 mm 1 mps 689 mmHg 68%
    20:00 +20°C° 0 mm 1 mps 689 mmHg 68%
    21:00 +20°C° 0 mm 1 mps 690 mmHg 68%
    22:00 +19°C° 0 mm 1 mps 690 mmHg 68%
    23:00 +19°C° 0 mm 1 mps 689 mmHg 68%

    29 August, Thursday

    Time Temperature Precipitation Wind Pressure Humidity
    00:00 +19°C° 0 mm 1 mps 689 mmHg 68%
    01:00 +19°C° 0 mm 1 mps 689 mmHg 68%
    02:00 +19°C° 0 mm 1 mps 689 mmHg 68%
    03:00 +19°C° 0 mm 1 mps 689 mmHg 68%
    04:00 +18°C° 0 mm 1 mps 689 mmHg 68%
    05:00 +20°C° 0 mm 1 mps 689 mmHg 65%
    06:00 +21°C° 0 mm 1 mps 689 mmHg 63%
    07:00 +21°C° 0 mm 0 mps 690 mmHg 61%
    08:00 +23°C° 0 mm 0 mps 690 mmHg 54%
    09:00 +27°C° 0 mm 1 mps 691 mmHg 47%
    10:00 +30°C° 0 mm 1 mps 691 mmHg 41%
    11:00 +30°C° 0 mm 1 mps 691 mmHg 40%
    12:00 +30°C° 0 mm 1 mps 691 mmHg 39%
    13:00 +30°C° 0 mm 1 mps 691 mmHg 39%
    14:00 +28°C° 0.2 mm 1 mps 690 mmHg 46%
    15:00 +27°C° 0.2 mm 2 mps 690 mmHg 54%
    16:00 +25°C° 0.2 mm 2 mps 689 mmHg 61%
    17:00 +23°C° 0.3 mm 2 mps 689 mmHg 68%
    18:00 +22°C° 0.3 mm 1 mps 689 mmHg 74%
    19:00 +20°C° 0.3 mm 1 mps 689 mmHg 80%
    20:00 +20°C° 0 mm 1 mps 689 mmHg 79%
    21:00 +20°C° 0 mm 1 mps 689 mmHg 77%
    22:00 +20°C° 0 mm 1 mps 689 mmHg 75%
    23:00 +19°C° 0 mm 1 mps 689 mmHg 75%

    30 August, Friday

    Time Temperature Precipitation Wind Pressure Humidity
    00:00 +19°C° 0 mm 1 mps 689 mmHg 75%
    01:00 +18°C° 0 mm 1 mps 689 mmHg 75%
    02:00 +18°C° 0 mm 1 mps 689 mmHg 75%
    03:00 +18°C° 0 mm 1 mps 688 mmHg 76%
    04:00 +18°C° 0 mm 1 mps 688 mmHg 76%
    05:00 +19°C° 0 mm 1 mps 689 mmHg 74%
    06:00 +20°C° 0 mm 1 mps 689 mmHg 71%
    07:00 +22°C° 0 mm 1 mps 690 mmHg 69%
    08:00 +24°C° 0 mm 1 mps 690 mmHg 59%
    09:00 +26°C° 0 mm 1 mps 691 mmHg 49%
    10:00 +28°C° 0 mm 1 mps 691 mmHg 39%
    11:00 +29°C° 0 mm 1 mps 691 mmHg 37%
    12:00 +29°C° 0 mm 1 mps 691 mmHg 35%
    13:00 +30°C° 0 mm 2 mps 691 mmHg 33%
    14:00 +29°C° 0 mm 1 mps 691 mmHg 35%
    15:00 +29°C° 0 mm 1 mps 691 mmHg 38%
    16:00 +28°C° 0 mm 1 mps 690 mmHg 40%
    17:00 +26°C° 0 mm 1 mps 690 mmHg 45%
    18:00 +24°C° 0 mm 1 mps 689 mmHg 50%
    19:00 +21°C° 0 mm 1 mps 689 mmHg 55%
    20:00 +21°C° 0 mm 1 mps 689 mmHg 53%
    21:00 +20°C° 0 mm 1 mps 689 mmHg 51%
    22:00 +19°C° 0 mm 1 mps 689 mmHg 49%
    23:00 +19°C° 0 mm 1 mps 689 mmHg 48%

    31 August, Saturday

    Time Temperature Precipitation Wind Pressure Humidity
    00:00 +19°C° 0 mm 1 mps 689 mmHg 48%
    01:00 +18°C° 0 mm 1 mps 689 mmHg 47%
    02:00 +18°C° 0 mm 1 mps 689 mmHg 48%
    03:00 +18°C° 0 mm 1 mps 688 mmHg 48%
    04:00 +16°C° 0 mm 1 mps 688 mmHg 49%
    05:00 +19°C° 0 mm 1 mps 689 mmHg 50%
    06:00 +20°C° 0 mm 1 mps 689 mmHg 50%
    07:00 +21°C° 0 mm 1 mps 689 mmHg 50%
    08:00 +24°C° 0 mm 1 mps 690 mmHg 45%
    09:00 +26°C° 0 mm 1 mps 691 mmHg 40%
    10:00 +29°C° 0 mm 1 mps 691 mmHg 34%
    11:00 +30°C° 0 mm 1 mps 691 mmHg 34%
    12:00 +30°C° 0 mm 1 mps 691 mmHg 33%
    13:00 +31°C° 0 mm 1 mps 691 mmHg 32%
    14:00 +30°C° 0 mm 1 mps 690 mmHg 37%
    15:00 +28°C° 0 mm 1 mps 690 mmHg 43%
    16:00 +27°C° 0 mm 2 mps 689 mmHg 49%
    17:00 +25°C° 0 mm 1 mps 689 mmHg 52%
    18:00 +24°C° 0 mm 1 mps 689 mmHg 55%
    19:00 +20°C° 0 mm 0 mps 689 mmHg 57%
    20:00 +19°C° 0 mm 0 mps 689 mmHg 59%
    21:00 +21°C° 0 mm 1 mps 689 mmHg 61%
    22:00 +20°C° 0 mm 1 mps 689 mmHg 63%
    23:00 +20°C° 0 mm 1 mps 689 mmHg 63%
    Show more